Tracking 27111 objects as of 29-Mar-2023
HD Live streaming from Space Station
objects crossing your sky now

OBJECT L

Track OBJECT L now!
10-day predictions


NORAD ID: 55258
Int'l Code: 2023-007L
Perigee: 482.8 km
Apogee: 493.5 km
Inclination: 97.4 °
Period: 94.2 minutes
Semi major axis: 6859 km
RCS: Unknown
Launch date: January 15, 2023
Source: People's Republic of China (PRC)
Launch site: Taiyaun Space Center, China (TSC)
Your satellite tracking list
Your tracking list is empty




NASA's NSSDC Master Catalog

Two Line Element Set (TLE):
1 55258U 23007L   23088.01933068  .00023327  00000-0  84747-3 0  9998
2 55258  97.3648 161.5514 0007812  32.5373  89.7250 15.28260699 11111
Source of the keplerian elements: AFSPC